Overview Statistics Trail Chart Weather Telemetry Raw packets
 

This is the latest recevied weather packets stored in our database for station/object BV1EV-2. If no packets are shown the sender has not sent any weather packets the latest 10 day(s).

<< 1 2 3 4 5 6 7 >>
Time Temp. Humidity Pressure Rain* Wind** Luminosity Snow
1788510504 30° C 69% 1003.4 hPa - - - -
1788509303 30° C 65% 1003.2 hPa - - - -
1788508104 30° C 64% 1003 hPa - - - -
1788506904 29.44° C 63% 1003 hPa - - - -
1788505704 29.44° C 63% 1003.1 hPa - - - -
1788504504 27.78° C 57% 1003 hPa - - - -
1788503304 27.78° C 62% 1003.1 hPa - - - -
1788502104 27.78° C 62% 1003.2 hPa - - - -
1788500903 27.78° C 59% 1003.2 hPa - - - -
1788499704 28.33° C 59% 1003.3 hPa - - - -
1788498504 27.78° C 61% 1003.6 hPa - - - -
1788497304 27.78° C 62% 1003.6 hPa - - - -
1788496104 27.78° C 64% 1003.7 hPa - - - -
1788494904 28.33° C 65% 1004 hPa - - - -
1788493704 27.78° C 57% 1004.1 hPa - - - -
1788492504 27.78° C 57% 1004.1 hPa - - - -
1788491316 27.78° C 56% 1004.2 hPa - - - -
1788490103 27.22° C 53% 1004.1 hPa - - - -
1788488904 27.22° C 53% 1003.9 hPa - - - -
1788487704 27.78° C 54% 1003.7 hPa - - - -
1788486504 27.78° C 54% 1003.9 hPa - - - -
1788485304 28.33° C 53% 1003.9 hPa - - - -
1788484104 28.33° C 54% 1003.8 hPa - - - -
1788482904 28.33° C 53% 1003.7 hPa - - - -
1788481704 28.33° C 53% 1003.3 hPa - - - -

* Rain since midnight (hover to see other rain measurements)
** Current wind speed in m/s (hover to see current wind gust speed)